FW5810 Weather Reports


Display with metric or nautical units.
time (UTC)temp
F
wind
direction
speed
MPH
gust
MPH
rain 1hr
in
rain 24hr
in
rain mn
in
humidity
%
barometer
mb
20260507210806 55 273 5.0 10.0 0.00 0.00 0.00 38 1012.3
20260507210303 56 273 9.0 15.0 0.00 0.00 0.00 38 1012.0
20260507205759 58 321 5.0 12.0 0.00 0.00 0.00 37 1012.2
20260507205257 59 321 3.0 10.0 0.00 0.00 0.00 37 1012.0
20260507204752 59 336 3.0 5.0 0.00 0.00 0.00 34 1012.0
20260507204250 57 257 8.0 14.0 0.00 0.00 0.00 36 1012.1
20260507203748 56 265 7.0 10.0 0.00 0.00 0.00 37 1011.8
20260507203245 56 284 4.0 10.0 0.00 0.00 0.00 41 1012.0
20260507202741 56 292 4.0 7.0 0.00 0.00 0.00 38 1012.0
20260507202237 56 309 2.0 10.0 0.00 0.00 0.00 40 1012.1
20260507201732 57 324 6.0 15.0 0.00 0.00 0.00 37 1012.0
20260507201230 58 300 4.0 7.0 0.00 0.00 0.00 36 1012.0
20260507200726 59 358 4.0 10.0 0.00 0.00 0.00 36 1011.9
20260507200222 60 336 4.0 5.0 0.00 0.00 0.00 35 1012.1
20260507195718 61 239 4.0 8.0 0.00 0.00 0.00 32 1011.9
20260507195216 60 301 7.0 15.0 0.00 0.00 0.00 34 1012.0
20260507194713 60 285 3.0 8.0 0.00 0.00 0.00 38 1012.1
20260507194209 59 327 4.0 16.0 0.00 0.00 0.00 38 1012.3
20260507193706 60 261 12.0 15.0 0.00 0.00 0.00 34 1012.3
20260507193202 59 245 5.0 7.0 0.00 0.00 0.00 36 1012.2
20260507192658 59 294 4.0 14.0 0.00 0.00 0.00 37 1012.3
20260507192156 58 220 7.0 16.0 0.00 0.00 0.00 36 1012.3
20260507191651 58 254 4.0 11.0 0.00 0.00 0.00 35 1012.2
20260507191148 58 283 8.0 15.0 0.00 0.00 0.00 37 1012.4
20260507190645 56 294 5.0 7.0 0.00 0.00 0.00 39 1012.3
20260507190144 56 261 7.0 12.0 0.00 0.00 0.00 37 1012.4
20260507185642 56 249 10.0 12.0 0.00 0.00 0.00 36 1012.4
20260507185138 57 268 5.0 16.0 0.00 0.00 0.00 35 1012.5
20260507184636 58 258 5.0 11.0 0.00 0.00 0.00 36 1012.3
20260507184134 59 235 5.0 5.0 0.00 0.00 0.00 37 1012.3
20260507183630 57 0 5.0 14.0 0.00 0.00 0.00 37 1012.3
20260507183127 56 292 4.0 5.0 0.00 0.00 0.00 37 1012.5
20260507182624 56 339 3.0 12.0 0.00 0.00 0.00 37 1012.5
20260507182120 57 296 4.0 8.0 0.00 0.00 0.00 35 1012.4
20260507181616 57 331 3.0 5.0 0.00 0.00 0.00 40 1012.7
20260507181113 56 323 3.0 10.0 0.00 0.00 0.00 38 1012.6
20260507180609 56 292 5.0 15.0 0.00 0.00 0.00 38 1012.4
20260507180107 57 265 4.0 15.0 0.00 0.00 0.00 37 1012.4
20260507175602 56 318 4.0 8.0 0.00 0.00 0.00 36 1012.5
20260507175100 57 244 5.0 8.0 0.00 0.00 0.00 36 1012.7
20260507174557 57 282 3.0 8.0 0.00 0.00 0.00 39 1012.6
20260507174055 58 284 4.0 5.0 0.00 0.00 0.00 35 1012.4
20260507173551 58 277 1.0 4.0 0.00 0.00 0.00 38 1012.6
20260507173049 57 262 5.0 8.0 0.00 0.00 0.00 37 1012.6
20260507172544 58 275 6.0 8.0 0.00 0.00 0.00 36 1012.6
20260507172042 56 213 2.0 8.0 0.00 0.00 0.00 39 1012.6
20260507171536 55 341 3.0 4.0 0.00 0.00 0.00 36 1012.8
20260507171034 56 15 3.0 8.0 0.00 0.00 0.00 39 1012.7
20260507170531 57 291 4.0 8.0 0.00 0.00 0.00 39 1012.9
20260507170028 56 294 4.0 7.0 0.00 0.00 0.00 39 1012.8
20260507165523 57 266 5.0 12.0 0.00 0.00 0.00 39 1012.9
20260507165020 57 295 4.0 7.0 0.00 0.00 0.00 37 1012.9
20260507164516 56 280 2.0 7.0 0.00 0.00 0.00 41 1012.8
20260507164014 57 305 3.0 12.0 0.00 0.00 0.00 39 1013.0
20260507163510 57 8 2.0 10.0 0.00 0.00 0.00 40 1012.9
20260507163009 57 301 1.0 4.0 0.00 0.00 0.00 36 1012.9
20260507162503 56 292 2.0 5.0 0.00 0.00 0.00 38 1013.1
20260507162000 56 289 1.0 4.0 0.00 0.00 0.00 38 1012.8
20260507161456 56 289 4.0 14.0 0.00 0.00 0.00 42 1013.1
20260507160954 56 245 7.0 11.0 0.00 0.00 0.00 38 1012.8
20260507160449 55 226 6.0 8.0 0.00 0.00 0.00 42 1013.0
20260507155945 56 212 4.0 7.0 0.00 0.00 0.00 39 1013.1
20260507155441 55 249 3.0 5.0 0.00 0.00 0.00 39 1013.1
20260507154939 55 217 4.0 5.0 0.00 0.00 0.00 41 1013.0
20260507154435 56 249 9.0 12.0 0.00 0.00 0.00 41 1013.2
20260507153932 56 273 7.0 10.0 0.00 0.00 0.00 38 1013.2
20260507153429 57 270 7.0 10.0 0.00 0.00 0.00 38 1013.3
20260507152925 58 306 4.0 7.0 0.00 0.00 0.00 36 1013.2
20260507152422 57 320 4.0 5.0 0.00 0.00 0.00 41 1013.2
20260507151917 56 89 2.0 8.0 0.00 0.00 0.00 42 1013.2
20260507151414 56 332 4.0 4.0 0.00 0.00 0.00 42 1013.3
20260507150911 55 213 1.0 4.0 0.00 0.00 0.00 46 1013.3
20260507150408 54 334 3.0 3.0 0.00 0.00 0.00 46 1013.3
20260507145905 54 298 1.0 5.0 0.00 0.00 0.00 50 1013.2
20260507145400 54 288 5.0 7.0 0.00 0.00 0.00 45 1013.2
20260507144858 54 276 3.0 12.0 0.00 0.00 0.00 50 1013.3
20260507144355 55 253 6.0 10.0 0.00 0.00 0.00 48 1013.3
20260507143851 55 252 8.0 10.0 0.00 0.00 0.00 48 1013.7
20260507143349 55 345 2.0 5.0 0.00 0.00 0.00 51 1013.4
20260507142845 53 268 2.0 4.0 0.00 0.00 0.00 51 1013.4
20260507142341 54 255 7.0 10.0 0.00 0.00 0.00 52 1013.5
20260507141838 53 279 2.0 4.0 0.00 0.00 0.00 53 1013.7
20260507141335 53 231 5.0 7.0 0.00 0.00 0.00 56 1013.7
20260507140831 53 163 4.0 10.0 0.00 0.00 0.00 54 1013.5
20260507140328 53 288 2.0 4.0 0.00 0.00 0.00 57 1013.8
20260507135826 52 170 2.0 5.0 0.00 0.00 0.00 57 1013.8
20260507135322 52 125 1.0 4.0 0.00 0.00 0.00 58 1014.1
20260507134820 52 270 3.0 4.0 0.00 0.00 0.00 60 1013.8
20260507134316 51 246 3.0 4.0 0.00 0.00 0.00 59 1014.1
20260507133811 51 177 2.0 5.0 0.00 0.00 0.00 60 1014.0
20260507133308 51 251 2.0 4.0 0.00 0.00 0.00 62 1014.3
20260507132806 51 238 3.0 3.0 0.00 0.00 0.00 62 1014.1
20260507132306 51 284 1.0 3.0 0.00 0.00 0.00 62 1014.1
20260507131759 50 263 2.0 3.0 0.00 0.00 0.00 63 1014.2
20260507131256 50 222 3.0 4.0 0.00 0.00 0.00 62 1014.1
20260507130753 50 234 2.0 3.0 0.00 0.00 0.00 64 1014.1
20260507130251 51 289 2.0 4.0 0.00 0.00 0.00 63 1014.2
20260507125749 50 269 2.0 3.0 0.00 0.00 0.00 63 1014.2
20260507125246 49 241 3.0 5.0 0.00 0.00 0.00 62 1014.1
20260507124743 49 300 1.0 5.0 0.00 0.00 0.00 62 1014.0
20260507124240 49 246 2.0 4.0 0.00 0.00 0.00 64 1014.1
20260507123738 49 251 4.0 5.0 0.00 0.00 0.00 62 1014.0
20260507123236 49 207 4.0 4.0 0.00 0.00 0.00 64 1014.1
20260507122731 49 217 2.0 7.0 0.00 0.00 0.00 64 1014.0
20260507122227 49 218 8.0 8.0 0.00 0.00 0.00 65 1013.9
20260507121722 48 190 4.0 7.0 0.00 0.00 0.00 66 1014.0
20260507121218 48 226 2.0 3.0 0.00 0.00 0.00 68 1014.0
20260507120715 47 152 2.0 3.0 0.00 0.00 0.00 71 1014.0
20260507120212 47 173 1.0 3.0 0.00 0.00 0.00 71 1014.0
20260507115708 46 240 0.0 4.0 0.00 0.00 0.00 74 1014.1
20260507115204 44 239 0.0 3.0 0.00 0.00 0.00 75 1014.2
20260507114659 44 239 0.0 1.0 0.00 0.00 0.00 77 1014.2
20260507114157 44 222 2.0 3.0 0.00 0.00 0.00 78 1014.1
20260507113654 44 220 2.0 3.0 0.00 0.00 0.00 77 1014.2
20260507113151 44 233 1.0 3.0 0.00 0.00 0.00 78 1014.0
20260507112649 44 254 2.0 4.0 0.00 0.00 0.00 78 1014.1
20260507112145 43 228 2.0 3.0 0.00 0.00 0.00 79 1014.1
20260507111643 43 223 2.0 3.0 0.00 0.00 0.00 81 1014.0
20260507111139 42 227 0.0 3.0 0.00 0.00 0.00 82 1014.0
20260507110636 42 219 0.0 1.0 0.00 0.00 0.00 83 1013.9
20260507110133 41 226 1.0 1.0 0.00 0.00 0.00 84 1014.1
20260507105629 41 225 0.0 1.0 0.00 0.00 0.00 86 1013.9
20260507105125 41 225 0.0 0.0 0.00 0.00 0.00 87 1013.8
20260507104623 40 225 0.0 0.0 0.00 0.00 0.00 88 1013.8
20260507104119 40 224 0.0 1.0 0.00 0.00 0.00 89 1013.9
20260507103615 40 224 0.0 0.0 0.00 0.00 0.00 88 1013.7
20260507103112 39 225 0.0 1.0 0.00 0.00 0.00 89 1013.5
20260507102609 39 227 0.0 1.0 0.00 0.00 0.00 90 1013.7
20260507102105 39 227 0.0 0.0 0.00 0.00 0.00 90 1013.8
20260507101601 39 228 0.0 0.0 0.00 0.00 0.00 90 1013.7
20260507101057 40 227 0.0 0.0 0.00 0.00 0.00 90 1013.8
20260507100554 40 262 0.0 1.0 0.00 0.00 0.00 91 1013.5
20260507100052 39 262 1.0 1.0 0.00 0.00 0.00 93 1013.5
20260507095550 39 262 2.0 3.0 0.00 0.00 0.00 95 1013.7
20260507095046 39 205 0.0 1.0 0.00 0.00 0.00 96 1013.5
20260507094542 39 111 1.0 1.0 0.00 0.00 0.00 97 1013.4
20260507094040 39 104 1.0 1.0 0.00 0.00 0.00 97 1013.5
20260507093537 38 78 0.0 0.0 0.00 0.00 0.00 97 1013.4
20260507093036 38 79 0.0 1.0 0.00 0.00 0.00 97 1013.7
20260507092532 37 72 0.0 0.0 0.00 0.00 0.00 97 1013.8
20260507092029 37 72 0.0 1.0 0.00 0.00 0.00 97 1013.7
20260507091525 37 72 0.0 0.0 0.00 0.00 0.00 97 1013.7
20260507091021 36 72 0.0 0.0 0.00 0.00 0.00 97 1013.7
20260507090517 37 72 0.0 0.0 0.00 0.00 0.00 97 1013.8
20260507090014 37 72 0.0 0.0 0.00 0.00 0.00 97 1013.8
20260507085511 37 72 0.0 0.0 0.00 0.00 0.00 97 1013.7
20260507085008 37 72 0.0 0.0 0.00 0.00 0.00 97 1014.0
20260507084505 37 72 0.0 0.0 0.00 0.00 0.00 97 1013.9
20260507084002 36 72 0.0 0.0 0.00 0.00 0.00 97 1013.8
20260507083458 36 72 0.0 0.0 0.00 0.00 0.00 96 1013.7
20260507082954 37 72 0.0 0.0 0.00 0.00 0.00 96 1013.9
20260507082451 37 72 0.0 0.0 0.00 0.00 0.00 96 1013.8
20260507081947 37 72 0.0 0.0 0.00 0.00 0.00 96 1013.9
20260507081444 37 72 1.0 1.0 0.00 0.00 0.00 96 1014.0
20260507080941 37 72 0.0 0.0 0.00 0.00 0.00 96 1014.0
20260507080436 37 72 0.0 1.0 0.00 0.00 0.00 96 1014.1
20260507075932 37 73 0.0 1.0 0.00 0.00 0.00 96 1013.8
20260507075429 37 68 0.0 0.0 0.00 0.00 0.00 96 1013.9
20260507074925 37 68 0.0 0.0 0.00 0.00 0.00 96 1014.0
20260507074422 37 68 0.0 0.0 0.00 0.00 0.00 96 1014.1
20260507073920 37 68 0.0 0.0 0.00 0.00 0.00 96 1013.9
20260507073416 37 68 0.0 0.0 0.00 0.00 0.00 96 1014.0
20260507072913 37 68 0.0 0.0 0.00 0.00 0.00 95 1014.0
20260507072411 37 68 0.0 0.0 0.00 0.00 0.00 95 1014.2
20260507071908 37 68 0.0 0.0 0.00 0.00 0.00 95 1014.1
20260507071405 37 68 0.0 0.0 0.00 0.00 0.00 95 1014.0
20260507070901 38 68 0.0 0.0 0.00 0.00 0.00 95 1013.8
20260507070359 38 68 0.0 0.0 0.00 0.00 0.00 95 1014.1
20260507065855 37 68 0.0 0.0 0.00 0.00 0.00 95 1014.0
20260507065352 37 68 0.0 0.0 0.00 0.00 0.00 94 1014.0
20260507064849 38 68 0.0 0.0 0.00 0.00 0.00 94 1014.1
20260507064348 38 68 0.0 0.0 0.00 0.00 0.00 94 1014.2
20260507063845 38 68 0.0 0.0 0.00 0.00 0.00 94 1014.3
20260507063342 38 68 0.0 0.0 0.00 0.00 0.00 93 1014.3
20260507062839 38 68 0.0 0.0 0.00 0.00 0.00 93 1014.2
20260507062335 39 68 0.0 0.0 0.00 0.00 0.00 93 1014.3
20260507061833 39 68 0.0 0.0 0.00 0.00 0.00 92 1014.5
20260507061331 39 68 0.0 0.0 0.00 0.00 0.00 92 1014.5
20260507060830 40 68 0.0 0.0 0.00 0.00 0.00 92 1014.6
20260507060326 40 68 0.0 0.0 0.00 0.00 0.00 91 1014.7
20260507055823 40 68 0.0 0.0 0.00 0.00 0.00 91 1014.7
20260507055318 40 68 0.0 0.0 0.00 0.00 0.00 89 1014.6
20260507054815 41 68 0.0 0.0 0.00 0.00 0.00 89 1014.6
20260507054311 41 68 0.0 0.0 0.00 0.00 0.00 88 1014.6
20260507053808 41 68 0.0 0.0 0.00 0.00 0.00 86 1014.6
20260507053306 42 68 0.0 0.0 0.00 0.00 0.00 84 1014.6
20260507052805 42 68 0.0 0.0 0.00 0.00 0.00 84 1014.8
20260507052301 42 68 0.0 0.0 0.00 0.00 0.00 83 1014.7
20260507051759 42 68 0.0 0.0 0.00 0.00 0.00 82 1014.9
20260507051256 43 68 0.0 0.0 0.00 0.00 0.00 81 1014.7
20260507050752 44 68 0.0 0.0 0.00 0.00 0.00 80 1014.6
20260507050249 44 68 1.0 1.0 0.00 0.00 0.00 77 1014.7
20260507045746 44 68 0.0 0.0 0.00 0.00 0.00 77 1014.9
20260507045242 44 68 0.0 0.0 0.00 0.00 0.00 76 1014.9
20260507044740 44 69 0.0 1.0 0.00 0.00 0.00 75 1014.8
20260507044236 44 69 2.0 1.0 0.00 0.00 0.00 75 1014.9
20260507043732 44 68 2.0 3.0 0.00 0.00 0.00 74 1014.8
20260507043229 44 67 2.0 1.0 0.00 0.00 0.00 75 1014.9
20260507042725 44 63 1.0 1.0 0.00 0.00 0.00 75 1015.0
20260507042220 44 56 1.0 1.0 0.00 0.00 0.00 75 1015.2
20260507041718 44 56 1.0 1.0 0.00 0.00 0.00 73 1015.2
20260507041214 44 56 1.0 1.0 0.00 0.00 0.00 72 1015.3
20260507040711 44 56 0.0 1.0 0.00 0.00 0.00 71 1015.4
20260507040207 44 55 0.0 0.0 0.00 0.00 0.00 71 1015.2
20260507035704 45 55 0.0 1.0 0.00 0.85 0.85 72 1015.2
20260507035159 45 55 0.0 1.0 0.00 0.85 0.85 69 1015.2
20260507034656 46 55 0.0 0.0 0.00 0.85 0.85 69 1015.4
20260507034154 46 55 1.0 1.0 0.00 0.85 0.85 67 1015.3
20260507033652 46 55 0.0 1.0 0.00 0.85 0.85 67 1015.4
20260507033149 46 56 1.0 3.0 0.00 0.85 0.85 66 1015.3
20260507032647 46 46 2.0 4.0 0.00 0.85 0.85 66 1015.2
20260507032142 46 73 4.0 5.0 0.00 0.85 0.85 67 1015.2
20260507031639 46 57 1.0 1.0 0.00 0.85 0.85 68 1015.1
20260507031136 46 27 1.0 1.0 0.00 0.85 0.85 72 1015.2
20260507030633 46 27 0.0 0.0 0.00 0.85 0.85 72 1015.2
20260507030131 46 27 0.0 0.0 0.00 0.85 0.85 71 1015.3
20260507025627 47 27 0.0 0.0 0.00 0.85 0.85 69 1015.2
20260507025124 47 27 0.0 0.0 0.00 0.85 0.85 73 1015.2
20260507024622 47 27 0.0 0.0 0.00 0.85 0.85 73 1015.2
20260507024119 47 27 0.0 0.0 0.00 0.85 0.85 68 1015.2
20260507023614 47 27 0.0 0.0 0.00 0.85 0.85 68 1014.8
20260507023112 47 27 0.0 0.0 0.00 0.85 0.85 66 1015.0
20260507022609 47 27 0.0 0.0 0.00 0.85 0.85 66 1014.9
20260507022104 48 27 0.0 0.0 0.00 0.85 0.85 65 1014.9
20260507021601 48 27 0.0 0.0 0.00 0.85 0.85 64 1014.9
20260507021057 48 27 0.0 0.0 0.00 0.85 0.85 63 1015.0
20260507020555 48 27 2.0 1.0 0.00 0.85 0.85 63 1014.8
20260507020051 48 27 0.0 0.0 0.00 0.85 0.85 64 1014.7
20260507015550 48 27 0.0 0.0 0.00 0.85 0.85 62 1014.7
20260507015047 48 27 1.0 1.0 0.00 0.85 0.85 61 1014.8
20260507014543 48 27 1.0 1.0 0.00 0.85 0.85 60 1014.6
20260507014039 48 27 0.0 0.0 0.00 0.85 0.85 58 1014.4
20260507013536 48 27 2.0 3.0 0.00 0.85 0.85 58 1014.4
20260507013033 48 34 2.0 3.0 0.00 0.85 0.85 58 1014.5
20260507012531 48 37 1.0 1.0 0.00 0.85 0.85 59 1014.4
20260507012026 48 37 0.0 1.0 0.00 0.85 0.85 58 1014.3
20260507011524 48 37 0.0 1.0 0.00 0.85 0.85 59 1014.4
20260507011020 48 37 0.0 1.0 0.00 0.85 0.85 58 1014.3
20260507010514 48 37 2.0 4.0 0.00 0.85 0.85 57 1014.3
20260507010011 49 35 4.0 4.0 0.00 0.85 0.85 56 1014.3
20260507005509 49 25 2.0 7.0 0.00 0.85 0.85 57 1014.2
20260507005005 49 16 3.0 5.0 0.00 0.85 0.85 56 1014.4
20260507004502 49 14 4.0 4.0 0.00 0.85 0.85 54 1014.4
20260507004000 49 348 2.0 3.0 0.00 0.85 0.85 54 1014.3
20260507003454 49 358 3.0 5.0 0.00 0.85 0.85 53 1014.4
20260507002944 49 352 1.0 1.0 0.00 0.85 0.85 54 1014.3
20260507002441 49 352 1.0 3.0 0.00 0.85 0.85 51 1014.1
20260507001938 49 352 1.0 1.0 0.00 0.85 0.85 51 1014.1
20260507001434 50 8 2.0 4.0 0.00 0.85 0.85 51 1014.1
20260507000932 50 350 1.0 4.0 0.00 0.85 0.85 50 1014.2
20260507000427 50 14 2.0 3.0 0.00 0.85 0.85 51 1014.1
20260506235923 50 335 2.0 3.0 0.00 0.85 0.85 51 1014.3
20260506235421 50 336 1.0 4.0 0.00 0.85 0.85 50 1014.4
20260506234916 50 0 2.0 4.0 0.00 0.85 0.85 51 1014.2
20260506234414 50 342 1.0 1.0 0.00 0.85 0.85 51 1014.1
20260506233911 50 330 1.0 5.0 0.00 0.85 0.85 50 1014.3
20260506233407 50 335 2.0 3.0 0.00 0.85 0.85 50 1014.0
20260506232904 50 338 2.0 4.0 0.00 0.85 0.85 50 1014.2
20260506232400 50 352 2.0 4.0 0.00 0.85 0.85 50 1014.2
20260506231856 50 9 6.0 12.0 0.00 0.85 0.85 48 1014.0
20260506231354 50 324 7.0 12.0 0.00 0.85 0.85 48 1014.0
20260506230851 51 344 6.0 7.0 0.00 0.85 0.85 49 1014.0
20260506230348 51 349 3.0 7.0 0.00 0.85 0.85 50 1013.9
20260506225844 51 334 5.0 11.0 0.00 0.85 0.85 48 1014.0
20260506225341 51 340 3.0 5.0 0.00 0.85 0.85 48 1013.8
20260506224833 51 355 5.0 7.0 0.00 0.85 0.85 49 1014.0
20260506224330 51 331 4.0 8.0 0.00 0.85 0.85 46 1013.8
20260506223826 51 6 6.0 10.0 0.00 0.85 0.85 46 1013.7
20260506223321 51 6 9.0 11.0 0.00 0.85 0.85 46 1013.4
20260506222819 51 35 5.0 5.0 0.00 0.85 0.85 45 1013.4
20260506222314 51 25 10.0 12.0 0.00 0.85 0.85 44 1013.3
20260506221812 52 350 7.0 8.0 0.00 0.85 0.85 46 1013.3
20260506221310 52 22 5.0 7.0 0.00 0.85 0.85 47 1013.5
20260506220807 52 5 3.0 4.0 0.00 0.85 0.85 46 1013.4
20260506220302 52 322 2.0 3.0 0.00 0.85 0.85 45 1013.1
20260506215759 52 320 5.0 5.0 0.00 0.85 0.85 45 1013.3
20260506215255 52 13 5.0 8.0 0.00 0.85 0.85 45 1013.2
20260506214751 52 310 5.0 8.0 0.00 0.85 0.85 46 1013.0
20260506214248 52 4 2.0 7.0 0.00 0.85 0.85 48 1013.0
20260506213747 52 22 7.0 11.0 0.00 0.85 0.85 45 1012.9
20260506213243 52 34 7.0 8.0 0.00 0.85 0.85 43 1012.9
20260506212740 52 358 6.0 11.0 0.00 0.85 0.85 43 1013.0
20260506212236 53 341 7.0 14.0 0.00 0.85 0.85 44 1012.9
20260506211726 53 5 10.0 12.0 0.00 0.85 0.85 42 1012.6
20260506211222 53 342 7.0 12.0 0.00 0.85 0.85 44 1012.6